Ames Municipal Airport
Sunday 2:53 PM
Temperature70° (70°/54°)
Dew Point51°
Relative Humidity51
%
Visibility10
mi
Pressure1024.0
mb
Wind DirectionS
170°
Wind Speed12
mph
Precipitation Today0.00"

Last 30 Observations

Time PresWx Temp DP Feels RH% Vsby Pressure Ceiling Direction Speed 1h Precip
2:53 PM 70° 51° 51
%
10
mi
1024.1
mb
7,500
ft
S
170°
11
mph
0.00"
1:53 PM 70° 51° 51
%
10
mi
1024.7
mb
7,000
ft
S
180°
11
mph
0.00"
12:53 PM 67° 50° 55
%
10
mi
1025.4
mb
7,000
ft
SSE
150°
13
mph
0.00"
11:53 AM 66° 48° 52
%
10
mi
1025.7
mb
7,500
ft
SSE
160°
11
mph
0.00"
10:53 AM 66° 49° 54
%
10
mi
1026.1
mb
7,500
ft
SSE
150°
11
mph
0.00"
9:53 AM 63° 47° 56
%
10
mi
1026.4
mb
7,500
ft
SE
140°
11
mph
0.00"
8:53 AM 61° 48° 62
%
10
mi
1026.8
mb
7,500
ft
SE
140°
7
mph
0.00"
7:53 AM 59° 49° 69
%
10
mi
1026.1
mb
7,500
ft
0.00"
6:53 AM 58° 49° 72
%
10
mi
1025.7
mb
7,500
ft
ESE
120°
3
mph
0.00"
5:53 AM 57° 48° 72
%
10
mi
1024.7
mb
7,500
ft
ESE
110°
7
mph
0.00"
4:53 AM 56° 49° 77
%
10
mi
1024.4
mb
11,000
ft
E
100°
5
mph
0.00"
3:53 AM 54° 50° 86
%
10
mi
1024.4
mb
12,000
ft
ESE
120°
3
mph
0.00"
2:53 AM 55° 52° 89
%
10
mi
1024.7
mb
11,000
ft
Calm 0.00"
1:53 AM 57° 53° 87
%
10
mi
1024.7
mb
12,000
ft
Calm 0.00"
12:53 AM 59° 53° 81
%
10
mi
1024.4
mb
12,000
ft
Calm 0.00"
11:53 PM 60° 53° 78
%
10
mi
1024.1
mb
11,000
ft
W
260°
6
mph
0.00"
10:53 PM 59° 53° 81
%
10
mi
1024.1
mb
Calm 0.00"
9:53 PM 62° 50° 65
%
10
mi
1023.4
mb
SE
140°
3
mph
0.00"
8:53 PM 64° 50° 60
%
10
mi
1023.0
mb
SSE
150°
5
mph
0.00"
7:53 PM 71° 50° 47
%
10
mi
1023.0
mb
12,000
ft
Calm 0.00"
6:53 PM 72° 47° 41
%
10
mi
1023.0
mb
NE
50°
5
mph
0.00"
5:53 PM 73° 46° 38
%
10
mi
1023.0
mb
SE
140°
3
mph
0.00"
4:53 PM 72° 46° 40
%
10
mi
1023.7
mb
N
350°
5
mph
0.00"
3:53 PM 71° 47° 42
%
10
mi
1024.1
mb
Variable 7
mph
0.00"
2:53 PM 71° 46° 41
%
10
mi
1024.4
mb
Calm 0.00"
1:53 PM 69° 49° 49
%
10
mi
1024.4
mb
5,500
ft
N
10°
10
mph
0.00"
12:53 PM 70° 50° 49
%
10
mi
1024.7
mb
N
10°
7
mph
0.00"
11:53 AM 69° 50° 51
%
10
mi
1025.1
mb
ENE
60°
13
mph
(G18)
0.00"
10:53 AM 68° 51° 55
%
10
mi
1025.4
mb
Variable 7
mph
0.00"
9:53 AM 66° 49° 54
%
10
mi
1025.7
mb
NE
40°
7
mph
0.00"